La Junta, CO

5:36 AM MST on December 12, 2017 (GMT -0700)
La Junta Municipal

Weather History for KLHX - April, 2013

Change the Weather History Date:

Tuesday, April 9, 2013

  Actual Average Record
Temperature  
Mean Temperature 31 °F 51 °F  
Max Temperature 45 °F 66 °F 91 °F (1977)
Min Temperature 16 °F 35 °F 16 °F (2013)
Degree Days  
Heating Degree Days 34 14  
Month to date heating degree days 143 140  
Since 1 July heating degree days 4591 4888  
Cooling Degree Days 0 0  
Month to date cooling degree days 0 0  
Year to date cooling degree days 0 1  
Moisture  
Dew Point 16 °F    
Average Humidity 66    
Maximum Humidity 81    
Minimum Humidity 50    
Precipitation  
Precipitation T in 0.04 in 0.65 in (1949)
Month to date precipitation T 0.30  
Year to date precipitation 0.35  
Sea Level Pressure  
Sea Level Pressure 29.90 in    
Wind  
Wind Speed 24 mph (North)    
Max Wind Speed 49 mph    
Max Gust Speed 56 mph    
Visibility 4 miles    
Events Snow    
T = Trace of Precipitation, MM = Missing Value Source: NWS Daily Summary

Daily Weather History Graph

Daily Weather History Graph

Search for Another Location

Airport or City:

Trip Planner

Search our weather history database for the weather conditions in past years. The results will help you decide how hot, cold, wet, or windy it might be!

Date:

Astronomy

Apr. 09, 2013 Rise Set
Actual Time 6:26 AM MDT 7:24 PM MDT
Civil Twilight 5:59 AM MDT 7:51 PM MDT
Nautical Twilight 5:28 AM MDT 8:23 PM MDT
Astronomical Twilight 4:54 AM MDT 8:56 PM MDT
Moon 5:50 AM MDT (4/9) 7:02 PM MDT (4/9)
Length of Visible Light 13h 51m
Length of Day
12h 58m
Waning Crescent, 0% of the Moon is Illuminated
Apr 9
Waning Crescent
Apr 10
New
Apr 18
First Quarter
Apr 25
Full
May 2
Last Quarter

Hourly Weather History & Observations

Time (MDT) Temp. Windchill Dew Point Humidity Pressure Visibility Wind Dir Wind Speed Gust Speed Precip Events Conditions
12:01 AM 44.6 °F 33.9 °F 30.2 °F 57% 29.52 in 3.0 mi North 35.7 mph 49.5 mph N/A   Haze
12:11 AM 42.8 °F 31.0 °F 30.2 °F 61% 29.54 in 1.8 mi North 39.1 mph 51.8 mph N/A   Haze
12:20 AM 42.8 °F 31.3 °F 28.4 °F 57% 29.55 in 1.2 mi NNW 36.8 mph 55.2 mph N/A   Haze
12:24 AM 42.8 °F 30.8 °F 28.4 °F 57% 29.55 in 1.0 mi North 40.3 mph 55.2 mph N/A   Haze
12:33 AM 41.0 °F 28.0 °F 28.4 °F 61% 29.57 in 1.2 mi North 42.6 mph 52.9 mph N/A   Haze
12:41 AM 41.0 °F 28.8 °F 28.4 °F 61% 29.57 in 1.5 mi North 36.8 mph 52.9 mph N/A   Haze
12:53 AM 39.9 °F 28.4 °F 27.0 °F 60% 29.45 in 1.8 mi North 29.9 mph 52.9 mph N/A   Haze
12:56 AM 39.2 °F 25.1 °F 26.6 °F 61% 29.56 in 2.0 mi North 46.0 mph 51.8 mph N/A   Haze
1:09 AM 39.2 °F 27.0 °F 26.6 °F 61% 29.57 in 4.0 mi North 32.2 mph 50.6 mph N/A   Haze
1:27 AM 37.4 °F 23.5 °F 26.6 °F 65% 29.59 in 1.8 mi North 39.1 mph 48.3 mph 0.00 in Snow Light Snow
1:53 AM 36.0 °F 21.3 °F 23.0 °F 59% 29.53 in 1.5 mi North 40.3 mph 52.9 mph 0.00 in Snow Light Snow
2:22 AM 33.8 °F 19.0 °F 21.2 °F 60% 29.65 in 1.0 mi North 35.7 mph 55.2 mph 0.00 in Snow Light Snow
2:31 AM 33.8 °F 18.6 °F 19.4 °F 56% 29.67 in 2.0 mi North 38.0 mph 48.3 mph 0.00 in Snow Light Snow
2:44 AM 32.0 °F 15.6 °F 19.4 °F 60% 29.68 in 1.0 mi North 41.4 mph 49.5 mph 0.00 in Snow Light Snow
2:53 AM 32.0 °F 16.0 °F 19.0 °F 59% 29.57 in 1.0 mi North 39.1 mph 51.8 mph 0.00 in Snow Light Snow
3:04 AM 32.0 °F 15.8 °F 19.4 °F 60% 29.67 in 1.0 mi North 40.3 mph 51.8 mph 0.00 in Snow Light Snow
3:24 AM 30.2 °F 15.2 °F 17.6 °F 60% 29.69 in 2.0 mi North 29.9 mph 43.7 mph 0.00 in Snow Light Snow
3:32 AM 30.2 °F 13.5 °F 17.6 °F 60% 29.71 in 1.8 mi North 39.1 mph 48.3 mph 0.00 in Snow Light Snow
3:53 AM 30.0 °F 13.8 °F 17.1 °F 59% 29.60 in 1.2 mi North 35.7 mph 48.3 mph 0.00 in Snow Light Snow
4:07 AM 28.4 °F 10.8 °F 17.6 °F 64% 29.71 in 2.0 mi North 40.3 mph 52.9 mph 0.00 in Snow Light Snow
4:49 AM 28.4 °F 11.6 °F 15.8 °F 59% 29.74 in 3.0 mi North 35.7 mph 48.3 mph 0.00 in Snow Light Snow
4:53 AM 28.0 °F 10.9 °F 16.0 °F 61% 29.67 in 4.0 mi North 36.8 mph 47.2 mph 0.00 in Snow Light Snow
5:06 AM 28.4 °F 12.5 °F 15.8 °F 59% 29.78 in 4.0 mi North 31.1 mph 48.3 mph 0.00 in Snow Light Snow
5:53 AM 26.1 °F 9.6 °F 12.9 °F 58% 29.75 in 6.0 mi North 29.9 mph 41.4 mph 0.00 in Snow Light Snow
6:53 AM 25.0 °F 8.4 °F 10.9 °F 55% 29.81 in 6.0 mi North 28.8 mph 38.0 mph 0.00 in   Haze
7:53 AM 23.0 °F 4.4 °F 10.0 °F 58% 29.82 in 6.0 mi North 34.5 mph 41.4 mph 0.00 in Snow Light Snow
8:53 AM 23.0 °F 7.2 °F 9.0 °F 55% 29.89 in 7.0 mi North 23.0 mph 33.4 mph 0.00 in   Overcast
9:53 AM 24.1 °F 7.7 °F 8.1 °F 51% 29.94 in 5.0 mi North 26.5 mph 32.2 mph N/A   Haze
10:17 AM 23.0 °F 8.0 °F 8.6 °F 54% 30.00 in 7.0 mi North 20.7 mph 27.6 mph N/A   Overcast
10:46 AM 23.0 °F 6.3 °F 8.6 °F 54% 30.00 in 5.0 mi North 26.5 mph 29.9 mph N/A   Haze
10:53 AM 24.1 °F 8.3 °F 8.1 °F 51% 30.01 in 6.0 mi North 24.2 mph 28.8 mph 0.00 in Snow Light Snow
11:17 AM 23.0 °F 7.2 °F 10.4 °F 59% 29.98 in 3.0 mi North 23.0 mph 31.1 mph 0.00 in Snow Light Snow
11:25 AM 21.2 °F 5.2 °F 10.4 °F 63% 30.00 in 2.0 mi North 21.9 mph 32.2 mph 0.00 in Snow Light Snow
11:41 AM 21.2 °F 6.0 °F 12.2 °F 68% 29.99 in 1.2 mi North 19.6 mph 28.8 mph 0.00 in Snow Light Snow
11:45 AM 21.2 °F 5.2 °F 14.0 °F 74% 30.00 in 0.8 mi North 21.9 mph 29.9 mph 0.00 in Snow Light Snow
11:53 AM 21.9 °F 5.5 °F 15.1 °F 75% 30.03 in 0.5 mi North 24.2 mph 31.1 mph 0.00 in Snow Snow
12:01 PM 21.2 °F 4.5 °F 15.8 °F 80% 30.01 in 0.5 mi North 24.2 mph 31.1 mph 0.00 in Snow Snow
12:26 PM 21.2 °F 6.4 °F 17.6 °F 86% 30.00 in 0.8 mi NNE 18.4 mph 26.5 mph 0.00 in Snow Light Snow
12:31 PM 24.8 °F 10.3 °F 17.6 °F 74% 30.00 in 1.2 mi North 20.7 mph 27.6 mph 0.00 in Snow Light Snow
12:42 PM 24.8 °F 9.6 °F 17.6 °F 74% 30.00 in 3.0 mi North 23.0 mph 31.1 mph 0.00 in Snow Light Snow
12:50 PM 23.0 °F 6.6 °F 17.6 °F 80% 30.01 in 1.8 mi North 25.3 mph 31.1 mph 0.00 in Snow Light Snow
12:53 PM 23.0 °F 6.6 °F 17.1 °F 78% 30.04 in 1.5 mi North 25.3 mph 31.1 mph 0.00 in Snow Light Snow
12:59 PM 23.0 °F 6.3 °F 15.8 °F 74% 29.99 in 3.0 mi North 26.5 mph - 0.00 in Snow Light Snow
1:07 PM 23.0 °F 6.0 °F 17.6 °F 80% 29.96 in 1.8 mi North 27.6 mph - 0.00 in Snow Light Snow
1:20 PM 23.0 °F 6.3 °F 15.8 °F 74% 29.97 in 3.0 mi North 26.5 mph 34.5 mph 0.00 in Snow Light Snow
1:53 PM 24.1 °F 8.7 °F 14.0 °F 65% 30.04 in 4.0 mi North 23.0 mph - 0.00 in Snow Light Snow
2:11 PM 23.0 °F 8.7 °F 15.8 °F 74% 29.99 in 3.0 mi North 18.4 mph 31.1 mph 0.00 in Snow Light Snow
2:32 PM 24.8 °F 10.0 °F 12.2 °F 59% 30.01 in 8.0 mi North 21.9 mph 31.1 mph 0.00 in   Overcast
2:53 PM 24.1 °F 9.4 °F 10.9 °F 57% 30.09 in 8.0 mi North 20.7 mph - 0.00 in   Overcast
3:53 PM 24.1 °F 8.7 °F 10.9 °F 57% 30.08 in 10.0 mi North 23.0 mph 27.6 mph 0.00 in   Overcast
4:34 PM 24.8 °F 9.3 °F 14.0 °F 64% 30.04 in 1.8 mi North 24.2 mph 29.9 mph 0.00 in Snow Light Snow
4:53 PM 23.0 °F 6.9 °F 16.0 °F 74% 30.13 in 1.5 mi North 24.2 mph 28.8 mph 0.00 in Snow Light Snow
5:04 PM 24.8 °F 9.6 °F 15.8 °F 69% 30.06 in 3.0 mi North 23.0 mph - 0.00 in Snow Light Snow
5:20 PM 23.0 °F 7.2 °F 15.8 °F 74% 30.07 in 6.0 mi North 23.0 mph 28.8 mph 0.00 in Snow Light Snow
5:24 PM 23.0 °F 7.6 °F 15.8 °F 74% 30.07 in 2.5 mi North 21.9 mph 29.9 mph 0.00 in Snow Light Snow
5:39 PM 23.0 °F 8.3 °F 15.8 °F 74% 30.09 in 6.0 mi North 19.6 mph - 0.00 in Snow Light Snow
5:53 PM 23.0 °F 6.9 °F 14.0 °F 68% 30.17 in 6.0 mi North 24.2 mph 28.8 mph 0.00 in Snow Light Snow
6:44 PM 21.2 °F 6.0 °F 10.4 °F 63% 30.08 in 10.0 mi North 19.6 mph 27.6 mph 0.00 in   Overcast
6:53 PM 21.9 °F 7.8 °F 10.9 °F 63% 30.18 in 10.0 mi North 17.3 mph - 0.00 in   Overcast
7:04 PM 19.4 °F 3.6 °F 10.4 °F 68% 30.10 in 8.0 mi North 19.6 mph 26.5 mph N/A   Overcast
7:53 PM 19.0 °F 4.5 °F 9.0 °F 65% 30.22 in 10.0 mi North 16.1 mph - N/A   Mostly Cloudy
8:21 PM 19.4 °F 5.0 °F 8.6 °F 63% 30.11 in 10.0 mi North 16.1 mph 23.0 mph N/A   Scattered Clouds
8:53 PM 18.0 °F 3.6 °F 8.1 °F 65% 30.25 in 10.0 mi North 15.0 mph - N/A   Clear
9:53 PM 17.1 °F 2.5 °F 7.0 °F 65% 30.26 in 10.0 mi North 15.0 mph - N/A   Clear
10:39 PM 17.6 °F 5.7 °F 6.8 °F 63% 30.15 in 10.0 mi North 10.4 mph - N/A   Mostly Cloudy
10:53 PM 16.0 °F 4.4 °F 6.1 °F 65% 30.25 in 10.0 mi North 9.2 mph - N/A   Scattered Clouds
11:53 PM 17.1 °F 3.0 °F 6.1 °F 62% 30.27 in 10.0 mi North 13.8 mph 20.7 mph N/A   Clear